| time (UTC) | temp C | wind direction | speed KPH | gust KPH | rain 1hr cm | rain 24hr cm | rain mn cm | humidity % | barometer mb |
| 20260906214854 | 31 | 334 | 1.6 | 1.6 | 0.00 | 0.00 | 0.00 | 32 | 1020.1 |
| 20260906214353 | 31 | 298 | 3.2 | 3.2 | 0.00 | 0.00 | 0.00 | 34 | 1020.4 |
| 20260906213853 | 31 | 347 | 1.6 | 1.6 | 0.00 | 0.00 | 0.00 | 33 | 1020.4 |
| 20260906213347 | 31 | 319 | 1.6 | 1.6 | 0.00 | 0.00 | 0.00 | 34 | 1020.5 |
| 20260906212845 | 31 | 348 | 0.0 | 0.0 | 0.00 | 0.00 | 0.00 | 35 | 1020.6 |
| 20260906212340 | 30 | 348 | 0.0 | 1.6 | 0.00 | 0.00 | 0.00 | 34 | 1020.6 |
| 20260906211840 | 30 | 339 | 0.0 | 1.6 | 0.00 | 0.00 | 0.00 | 33 | 1020.6 |
| 20260906211335 | 30 | 352 | 1.6 | 1.6 | 0.00 | 0.00 | 0.00 | 33 | 1020.7 |
| 20260906210830 | 30 | 25 | 1.6 | 3.2 | 0.00 | 0.00 | 0.00 | 32 | 1020.8 |
| 20260906210330 | 30 | 184 | 1.6 | 4.8 | 0.00 | 0.00 | 0.00 | 32 | 1020.8 |
| 20260906205826 | 30 | 354 | 1.6 | 3.2 | 0.00 | 0.00 | 0.00 | 34 | 1020.8 |
| 20260906205322 | 30 | 353 | 1.6 | 1.6 | 0.00 | 0.00 | 0.00 | 36 | 1021.0 |
| 20260906204818 | 30 | 356 | 1.6 | 1.6 | 0.00 | 0.00 | 0.00 | 34 | 1021.0 |
| 20260906204317 | 31 | 47 | 3.2 | 3.2 | 0.00 | 0.00 | 0.00 | 33 | 1021.1 |
| 20260906203816 | 30 | 15 | 1.6 | 3.2 | 0.00 | 0.00 | 0.00 | 34 | 1021.2 |
| 20260906203311 | 30 | 0 | 1.6 | 1.6 | 0.00 | 0.00 | 0.00 | 35 | 1020.8 |
| 20260906202808 | 30 | 357 | 0.0 | 0.0 | 0.00 | 0.00 | 0.00 | 38 | 1021.2 |
| 20260906202308 | 30 | 320 | 1.6 | 1.6 | 0.00 | 0.00 | 0.00 | 36 | 1021.1 |
| 20260906201803 | 30 | 359 | 1.6 | 3.2 | 0.00 | 0.00 | 0.00 | 36 | 1021.3 |
| 20260906201302 | 30 | 12 | 1.6 | 3.2 | 0.00 | 0.00 | 0.00 | 36 | 1021.6 |
| 20260906200758 | 30 | 344 | 0.0 | 1.6 | 0.00 | 0.00 | 0.00 | 37 | 1021.4 |
| 20260906200254 | 30 | 327 | 0.0 | 0.0 | 0.00 | 0.00 | 0.00 | 37 | 1021.6 |
| 20260906195749 | 30 | 7 | 1.6 | 1.6 | 0.00 | 0.00 | 0.00 | 36 | 1021.4 |
| 20260906195245 | 30 | 20 | 1.6 | 3.2 | 0.00 | 0.00 | 0.00 | 34 | 1021.8 |
| 20260906194741 | 30 | 1 | 1.6 | 1.6 | 0.00 | 0.00 | 0.00 | 34 | 1021.6 |
| 20260906194236 | 30 | 333 | 3.2 | 4.8 | 0.00 | 0.00 | 0.00 | 32 | 1021.8 |
| 20260906193732 | 30 | 311 | 4.8 | 6.4 | 0.00 | 0.00 | 0.00 | 32 | 1021.8 |
| 20260906193231 | 30 | 352 | 1.6 | 3.2 | 0.00 | 0.00 | 0.00 | 33 | 1022.2 |
| 20260906192728 | 30 | 356 | 1.6 | 1.6 | 0.00 | 0.00 | 0.00 | 35 | 1022.0 |
| 20260906192222 | 30 | 12 | 1.6 | 1.6 | 0.00 | 0.00 | 0.00 | 34 | 1022.0 |
| 20260906191721 | 30 | 347 | 1.6 | 3.2 | 0.00 | 0.00 | 0.00 | 33 | 1022.0 |
| 20260906191216 | 30 | 357 | 0.0 | 1.6 | 0.00 | 0.00 | 0.00 | 33 | 1022.0 |
| 20260906190716 | 30 | 337 | 1.6 | 1.6 | 0.00 | 0.00 | 0.00 | 36 | 1022.2 |
| 20260906190210 | 30 | 11 | 3.2 | 3.2 | 0.00 | 0.00 | 0.00 | 33 | 1022.4 |
| 20260906185709 | 30 | 318 | 1.6 | 1.6 | 0.00 | 0.00 | 0.00 | 35 | 1022.3 |
| 20260906185208 | 29 | 342 | 1.6 | 1.6 | 0.00 | 0.00 | 0.00 | 36 | 1022.5 |
| 20260906184703 | 29 | 349 | 1.6 | 1.6 | 0.00 | 0.00 | 0.00 | 34 | 1022.6 |
| 20260906184159 | 29 | 354 | 0.0 | 0.0 | 0.00 | 0.00 | 0.00 | 36 | 1022.6 |
| 20260906183654 | 30 | 81 | 4.8 | 4.8 | 0.00 | 0.00 | 0.00 | 33 | 1022.8 |
| 20260906183150 | 30 | 352 | 0.0 | 1.6 | 0.00 | 0.00 | 0.00 | 31 | 1022.9 |
| 20260906182650 | 30 | 15 | 1.6 | 1.6 | 0.00 | 0.00 | 0.00 | 32 | 1023.0 |
| 20260906182146 | 30 | 341 | 0.0 | 1.6 | 0.00 | 0.00 | 0.00 | 33 | 1023.1 |
| 20260906181641 | 30 | 29 | 3.2 | 4.8 | 0.00 | 0.00 | 0.00 | 31 | 1023.1 |
| 20260906181138 | 30 | 313 | 3.2 | 3.2 | 0.00 | 0.00 | 0.00 | 31 | 1023.4 |
| 20260906180633 | 30 | 4 | 1.6 | 1.6 | 0.00 | 0.00 | 0.00 | 33 | 1023.4 |
| 20260906180133 | 30 | 336 | 0.0 | 0.0 | 0.00 | 0.00 | 0.00 | 36 | 1023.6 |
| 20260906175631 | 30 | 343 | 0.0 | 0.0 | 0.00 | 0.00 | 0.00 | 34 | 1023.7 |
| 20260906175126 | 29 | 356 | 0.0 | 1.6 | 0.00 | 0.00 | 0.00 | 36 | 1023.8 |
| 20260906174624 | 28 | 340 | 0.0 | 1.6 | 0.00 | 0.00 | 0.00 | 35 | 1023.6 |
| 20260906174119 | 28 | 336 | 0.0 | 0.0 | 0.00 | 0.00 | 0.00 | 35 | 1023.8 |
| 20260906173614 | 28 | 338 | 1.6 | 1.6 | 0.00 | 0.00 | 0.00 | 35 | 1024.0 |
| 20260906173110 | 28 | 316 | 3.2 | 3.2 | 0.00 | 0.00 | 0.00 | 35 | 1024.1 |
| 20260906172609 | 28 | 36 | 3.2 | 3.2 | 0.00 | 0.00 | 0.00 | 35 | 1024.1 |
| 20260906172106 | 27 | 329 | 1.6 | 1.6 | 0.00 | 0.00 | 0.00 | 38 | 1024.1 |
| 20260906171604 | 26 | 321 | 0.0 | 0.0 | 0.00 | 0.00 | 0.00 | 39 | 1024.1 |
| 20260906171100 | 26 | 345 | 0.0 | 0.0 | 0.00 | 0.00 | 0.00 | 39 | 1024.2 |
| 20260906170556 | 26 | 345 | 0.0 | 1.6 | 0.00 | 0.00 | 0.00 | 38 | 1024.3 |
| 20260906170055 | 26 | 356 | 1.6 | 1.6 | 0.00 | 0.00 | 0.00 | 41 | 1024.3 |
| 20260906165553 | 26 | 333 | 1.6 | 1.6 | 0.00 | 0.00 | 0.00 | 39 | 1024.2 |
| 20260906165052 | 26 | 342 | 0.0 | 0.0 | 0.00 | 0.00 | 0.00 | 38 | 1024.2 |
| 20260906164552 | 26 | 341 | 1.6 | 3.2 | 0.00 | 0.00 | 0.00 | 36 | 1024.2 |
| 20260906164048 | 25 | 347 | 0.0 | 0.0 | 0.00 | 0.00 | 0.00 | 39 | 1024.3 |
| 20260906163543 | 25 | 346 | 0.0 | 1.6 | 0.00 | 0.00 | 0.00 | 37 | 1024.3 |
| 20260906163039 | 25 | 340 | 1.6 | 1.6 | 0.00 | 0.00 | 0.00 | 37 | 1024.4 |
| 20260906162536 | 25 | 303 | 0.0 | 0.0 | 0.00 | 0.00 | 0.00 | 39 | 1024.3 |
| 20260906162031 | 25 | 337 | 0.0 | 0.0 | 0.00 | 0.00 | 0.00 | 40 | 1024.2 |
| 20260906161526 | 25 | 333 | 0.0 | 0.0 | 0.00 | 0.00 | 0.00 | 43 | 1024.3 |
| 20260906161025 | 24 | 331 | 1.6 | 1.6 | 0.00 | 0.00 | 0.00 | 42 | 1024.2 |
| 20260906160524 | 24 | 327 | 0.0 | 0.0 | 0.00 | 0.00 | 0.00 | 42 | 1024.4 |
| 20260906160022 | 24 | 12 | 0.0 | 0.0 | 0.00 | 0.00 | 0.00 | 44 | 1024.2 |
| 20260906155520 | 23 | 12 | 0.0 | 0.0 | 0.00 | 0.00 | 0.00 | 42 | 1024.1 |
| 20260906155016 | 23 | 13 | 0.0 | 0.0 | 0.00 | 0.00 | 0.00 | 45 | 1024.3 |
| 20260906154512 | 23 | 13 | 0.0 | 0.0 | 0.00 | 0.00 | 0.00 | 47 | 1024.0 |
| 20260906154010 | 23 | 11 | 0.0 | 0.0 | 0.00 | 0.00 | 0.00 | 45 | 1024.3 |
| 20260906153509 | 23 | 10 | 0.0 | 0.0 | 0.00 | 0.00 | 0.00 | 43 | 1024.2 |
| 20260906153005 | 23 | 11 | 1.6 | 1.6 | 0.00 | 0.00 | 0.00 | 44 | 1024.1 |
| 20260906152459 | 23 | 10 | 0.0 | 0.0 | 0.00 | 0.00 | 0.00 | 47 | 1024.2 |
| 20260906151958 | 23 | 10 | 0.0 | 0.0 | 0.00 | 0.00 | 0.00 | 45 | 1024.1 |
| 20260906151454 | 23 | 10 | 0.0 | 0.0 | 0.00 | 0.00 | 0.00 | 50 | 1024.3 |
| 20260906150949 | 23 | 10 | 0.0 | 0.0 | 0.00 | 0.00 | 0.00 | 46 | 1024.2 |
| 20260906150444 | 23 | 34 | 3.2 | 3.2 | 0.00 | 0.00 | 0.00 | 42 | 1024.0 |
| 20260906145944 | 23 | 0 | 0.0 | 0.0 | 0.00 | 0.00 | 0.00 | 44 | 1024.0 |
| 20260906145444 | 23 | 0 | 0.0 | 0.0 | 0.00 | 0.00 | 0.00 | 43 | 1023.8 |
| 20260906144938 | 23 | 1 | 0.0 | 0.0 | 0.00 | 0.00 | 0.00 | 42 | 1023.7 |
| 20260906144432 | 23 | 1 | 0.0 | 0.0 | 0.00 | 0.00 | 0.00 | 42 | 1023.7 |
| 20260906143928 | 24 | 343 | 0.0 | 0.0 | 0.00 | 0.00 | 0.00 | 42 | 1024.0 |
| 20260906143424 | 24 | 323 | 1.6 | 1.6 | 0.00 | 0.00 | 0.00 | 42 | 1024.0 |
| 20260906142920 | 23 | 315 | 0.0 | 0.0 | 0.00 | 0.00 | 0.00 | 45 | 1024.1 |
| 20260906142419 | 23 | 314 | 0.0 | 0.0 | 0.00 | 0.00 | 0.00 | 45 | 1023.7 |
| 20260906141914 | 21 | 315 | 0.0 | 0.0 | 0.00 | 0.00 | 0.00 | 48 | 1023.7 |
| 20260906141408 | 21 | 314 | 0.0 | 0.0 | 0.00 | 0.00 | 0.00 | 49 | 1023.8 |
| 20260906140908 | 21 | 314 | 0.0 | 0.0 | 0.00 | 0.00 | 0.00 | 49 | 1023.8 |
| 20260906140403 | 20 | 314 | 0.0 | 0.0 | 0.00 | 0.00 | 0.00 | 51 | 1023.7 |
| 20260906135901 | 20 | 314 | 0.0 | 1.6 | 0.00 | 0.00 | 0.00 | 52 | 1023.8 |
| 20260906135400 | 18 | 312 | 0.0 | 0.0 | 0.00 | 0.00 | 0.00 | 58 | 1023.8 |
| 20260906134856 | 17 | 311 | 0.0 | 0.0 | 0.00 | 0.00 | 0.00 | 64 | 1023.8 |
| 20260906134350 | 17 | 311 | 0.0 | 1.6 | 0.00 | 0.00 | 0.00 | 66 | 1023.8 |
| 20260906133846 | 16 | 311 | 0.0 | 0.0 | 0.00 | 0.00 | 0.00 | 66 | 1023.5 |
| 20260906133342 | 16 | 311 | 0.0 | 0.0 | 0.00 | 0.00 | 0.00 | 67 | 1023.5 |
| 20260906132837 | 15 | 311 | 0.0 | 0.0 | 0.00 | 0.00 | 0.00 | 67 | 1023.5 |
| 20260906132332 | 15 | 311 | 0.0 | 0.0 | 0.00 | 0.00 | 0.00 | 68 | 1023.5 |
| 20260906131828 | 15 | 311 | 0.0 | 0.0 | 0.00 | 0.00 | 0.00 | 71 | 1023.2 |
| 20260906131323 | 15 | 311 | 0.0 | 0.0 | 0.00 | 0.00 | 0.00 | 70 | 1023.4 |
| 20260906130819 | 14 | 311 | 0.0 | 0.0 | 0.00 | 0.00 | 0.00 | 71 | 1023.5 |
| 20260906130318 | 14 | 311 | 0.0 | 0.0 | 0.00 | 0.00 | 0.00 | 73 | 1023.4 |
| 20260906125817 | 14 | 311 | 0.0 | 0.0 | 0.00 | 0.00 | 0.00 | 73 | 1023.4 |
| 20260906125310 | 14 | 311 | 0.0 | 1.6 | 0.00 | 0.00 | 0.00 | 73 | 1023.1 |
| 20260906124809 | 14 | 311 | 0.0 | 1.6 | 0.00 | 0.00 | 0.00 | 73 | 1023.4 |
| 20260906124306 | 14 | 311 | 0.0 | 1.6 | 0.00 | 0.00 | 0.00 | 74 | 1023.4 |
| 20260906123805 | 14 | 310 | 1.6 | 1.6 | 0.00 | 0.00 | 0.00 | 74 | 1023.4 |
| 20260906123300 | 14 | 311 | 1.6 | 1.6 | 0.00 | 0.00 | 0.00 | 73 | 1023.4 |
| 20260906122759 | 15 | 311 | 0.0 | 0.0 | 0.00 | 0.00 | 0.00 | 71 | 1023.6 |
| 20260906122255 | 15 | 311 | 0.0 | 0.0 | 0.00 | 0.00 | 0.00 | 71 | 1023.4 |
| 20260906121751 | 15 | 311 | 0.0 | 0.0 | 0.00 | 0.00 | 0.00 | 70 | 1023.4 |
| 20260906121247 | 15 | 311 | 0.0 | 1.6 | 0.00 | 0.00 | 0.00 | 70 | 1023.2 |
| 20260906120742 | 15 | 311 | 0.0 | 0.0 | 0.00 | 0.00 | 0.00 | 70 | 1023.4 |
| 20260906120239 | 15 | 311 | 0.0 | 1.6 | 0.00 | 0.00 | 0.00 | 71 | 1023.2 |
| 20260906115735 | 15 | 311 | 0.0 | 0.0 | 0.00 | 0.00 | 0.00 | 70 | 1023.2 |
| 20260906115230 | 15 | 310 | 0.0 | 0.0 | 0.00 | 0.00 | 0.00 | 69 | 1023.2 |
| 20260906114728 | 15 | 311 | 0.0 | 0.0 | 0.00 | 0.00 | 0.00 | 70 | 1023.2 |
| 20260906114224 | 16 | 311 | 0.0 | 0.0 | 0.00 | 0.00 | 0.00 | 66 | 1023.1 |
| 20260906113719 | 16 | 311 | 0.0 | 0.0 | 0.00 | 0.00 | 0.00 | 66 | 1023.2 |
| 20260906113219 | 16 | 311 | 0.0 | 0.0 | 0.00 | 0.00 | 0.00 | 65 | 1023.0 |
| 20260906112718 | 16 | 310 | 0.0 | 1.6 | 0.00 | 0.00 | 0.00 | 66 | 1023.1 |
| 20260906112215 | 16 | 311 | 0.0 | 0.0 | 0.00 | 0.00 | 0.00 | 65 | 1022.8 |
| 20260906111714 | 16 | 311 | 0.0 | 0.0 | 0.00 | 0.00 | 0.00 | 64 | 1023.0 |
| 20260906111209 | 16 | 311 | 0.0 | 0.0 | 0.00 | 0.00 | 0.00 | 63 | 1023.0 |
| 20260906110705 | 16 | 311 | 0.0 | 0.0 | 0.00 | 0.00 | 0.00 | 64 | 1022.6 |
| 20260906110200 | 17 | 311 | 0.0 | 0.0 | 0.00 | 0.00 | 0.00 | 63 | 1022.8 |
| 20260906105700 | 16 | 311 | 0.0 | 0.0 | 0.00 | 0.00 | 0.00 | 63 | 1022.8 |
| 20260906105156 | 16 | 311 | 1.6 | 1.6 | 0.00 | 0.00 | 0.00 | 64 | 1022.6 |
| 20260906104656 | 16 | 311 | 0.0 | 0.0 | 0.00 | 0.00 | 0.00 | 64 | 1022.6 |
| 20260906104155 | 16 | 311 | 0.0 | 0.0 | 0.00 | 0.00 | 0.00 | 62 | 1022.8 |
| 20260906103653 | 16 | 311 | 0.0 | 0.0 | 0.00 | 0.00 | 0.00 | 64 | 1022.9 |
| 20260906103148 | 16 | 311 | 0.0 | 0.0 | 0.00 | 0.00 | 0.00 | 67 | 1022.8 |
| 20260906102643 | 16 | 311 | 0.0 | 0.0 | 0.00 | 0.00 | 0.00 | 65 | 1022.8 |
| 20260906102143 | 16 | 311 | 0.0 | 0.0 | 0.00 | 0.00 | 0.00 | 64 | 1023.0 |
| 20260906101642 | 16 | 311 | 1.6 | 1.6 | 0.00 | 0.00 | 0.00 | 65 | 1022.9 |
| 20260906101137 | 16 | 311 | 0.0 | 0.0 | 0.00 | 0.00 | 0.00 | 66 | 1023.0 |
| 20260906100633 | 17 | 311 | 0.0 | 1.6 | 0.00 | 0.00 | 0.00 | 65 | 1023.1 |
| 20260906100128 | 17 | 311 | 1.6 | 1.6 | 0.00 | 0.00 | 0.00 | 65 | 1023.1 |
| 20260906095627 | 17 | 311 | 0.0 | 0.0 | 0.00 | 0.00 | 0.00 | 65 | 1023.2 |
| 20260906095123 | 17 | 311 | 0.0 | 0.0 | 0.00 | 0.00 | 0.00 | 64 | 1023.2 |
| 20260906094622 | 17 | 311 | 0.0 | 0.0 | 0.00 | 0.00 | 0.00 | 63 | 1023.1 |
| 20260906094118 | 17 | 311 | 0.0 | 0.0 | 0.00 | 0.00 | 0.00 | 64 | 1023.1 |
| 20260906093614 | 17 | 311 | 0.0 | 1.6 | 0.00 | 0.00 | 0.00 | 63 | 1023.2 |
| 20260906093114 | 17 | 311 | 0.0 | 0.0 | 0.00 | 0.00 | 0.00 | 62 | 1023.2 |
| 20260906092610 | 17 | 311 | 0.0 | 0.0 | 0.00 | 0.00 | 0.00 | 61 | 1023.4 |
| 20260906092105 | 17 | 311 | 0.0 | 0.0 | 0.00 | 0.00 | 0.00 | 59 | 1023.1 |
| 20260906091601 | 17 | 302 | 1.6 | 1.6 | 0.00 | 0.00 | 0.00 | 58 | 1022.9 |
| 20260906091057 | 17 | 302 | 0.0 | 0.0 | 0.00 | 0.00 | 0.00 | 59 | 1022.8 |
| 20260906090556 | 17 | 302 | 0.0 | 0.0 | 0.00 | 0.00 | 0.00 | 59 | 1022.8 |
| 20260906090056 | 18 | 302 | 0.0 | 0.0 | 0.00 | 0.00 | 0.00 | 58 | 1023.0 |
| 20260906085555 | 17 | 302 | 0.0 | 0.0 | 0.00 | 0.00 | 0.00 | 56 | 1022.8 |
| 20260906085050 | 17 | 302 | 0.0 | 0.0 | 0.00 | 0.00 | 0.00 | 58 | 1022.8 |
| 20260906084545 | 18 | 302 | 0.0 | 1.6 | 0.00 | 0.00 | 0.00 | 58 | 1022.8 |
| 20260906084043 | 18 | 302 | 0.0 | 0.0 | 0.00 | 0.00 | 0.00 | 55 | 1022.8 |
| 20260906083539 | 18 | 302 | 0.0 | 0.0 | 0.00 | 0.00 | 0.00 | 55 | 1022.6 |
| 20260906083039 | 18 | 301 | 0.0 | 0.0 | 0.00 | 0.00 | 0.00 | 53 | 1022.9 |
| 20260906082534 | 18 | 309 | 0.0 | 0.0 | 0.00 | 0.00 | 0.00 | 53 | 1022.9 |
| 20260906082030 | 18 | 309 | 0.0 | 1.6 | 0.00 | 0.00 | 0.00 | 54 | 1022.9 |
| 20260906081525 | 18 | 305 | 1.6 | 3.2 | 0.00 | 0.00 | 0.00 | 55 | 1023.0 |
| 20260906081022 | 19 | 291 | 0.0 | 0.0 | 0.00 | 0.00 | 0.00 | 57 | 1023.0 |
| 20260906080518 | 20 | 292 | 0.0 | 0.0 | 0.00 | 0.00 | 0.00 | 54 | 1023.0 |
| 20260906080014 | 20 | 292 | 0.0 | 1.6 | 0.00 | 0.00 | 0.00 | 53 | 1023.0 |
| 20260906075513 | 20 | 290 | 3.2 | 3.2 | 0.00 | 0.00 | 0.00 | 54 | 1023.2 |
| 20260906075008 | 20 | 287 | 3.2 | 3.2 | 0.00 | 0.00 | 0.00 | 54 | 1023.1 |
| 20260906074503 | 20 | 295 | 3.2 | 3.2 | 0.00 | 0.00 | 0.00 | 53 | 1023.1 |
| 20260906074001 | 19 | 291 | 3.2 | 4.8 | 0.00 | 0.00 | 0.00 | 56 | 1023.1 |
| 20260906073456 | 19 | 306 | 3.2 | 3.2 | 0.00 | 0.00 | 0.00 | 58 | 1023.0 |
| 20260906072952 | 18 | 312 | 0.0 | 1.6 | 0.00 | 0.00 | 0.00 | 60 | 1023.2 |
| 20260906072447 | 18 | 308 | 1.6 | 3.2 | 0.00 | 0.00 | 0.00 | 64 | 1023.1 |
| 20260906071943 | 18 | 310 | 1.6 | 1.6 | 0.00 | 0.00 | 0.00 | 64 | 1023.0 |
| 20260906071439 | 18 | 309 | 1.6 | 1.6 | 0.00 | 0.00 | 0.00 | 64 | 1023.0 |
| 20260906070935 | 18 | 304 | 1.6 | 1.6 | 0.00 | 0.00 | 0.00 | 64 | 1023.1 |
| 20260906070431 | 17 | 294 | 3.2 | 3.2 | 0.00 | 0.00 | 0.00 | 64 | 1023.4 |
| 20260906065926 | 17 | 294 | 1.6 | 1.6 | 0.00 | 0.00 | 0.00 | 64 | 1023.4 |
| 20260906065420 | 17 | 294 | 0.0 | 1.6 | 0.00 | 0.00 | 0.00 | 66 | 1023.2 |
| 20260906064916 | 16 | 294 | 0.0 | 0.0 | 0.00 | 0.00 | 0.00 | 67 | 1023.2 |
| 20260906064413 | 16 | 294 | 1.6 | 1.6 | 0.00 | 0.00 | 0.00 | 69 | 1023.2 |
| 20260906063912 | 17 | 294 | 0.0 | 0.0 | 0.00 | 0.00 | 0.00 | 67 | 1023.6 |
| 20260906063408 | 17 | 294 | 0.0 | 0.0 | 0.00 | 0.00 | 0.00 | 66 | 1023.4 |
| 20260906062902 | 17 | 294 | 0.0 | 0.0 | 0.00 | 0.00 | 0.00 | 65 | 1023.5 |
| 20260906062402 | 17 | 294 | 1.6 | 1.6 | 0.00 | 0.00 | 0.00 | 64 | 1023.4 |
| 20260906061857 | 17 | 294 | 0.0 | 1.6 | 0.00 | 0.00 | 0.00 | 62 | 1023.4 |
| 20260906061354 | 17 | 294 | 0.0 | 1.6 | 0.00 | 0.00 | 0.00 | 63 | 1023.2 |
| 20260906060848 | 17 | 294 | 0.0 | 0.0 | 0.00 | 0.00 | 0.00 | 63 | 1023.1 |
| 20260906060346 | 17 | 294 | 1.6 | 1.6 | 0.00 | 0.00 | 0.00 | 63 | 1023.0 |
| 20260906055841 | 17 | 294 | 1.6 | 1.6 | 0.00 | 0.03 | 0.03 | 63 | 1023.4 |
| 20260906055337 | 18 | 294 | 0.0 | 0.0 | 0.00 | 0.03 | 0.03 | 62 | 1023.4 |
| 20260906054832 | 18 | 294 | 0.0 | 0.0 | 0.00 | 0.03 | 0.03 | 61 | 1023.4 |
| 20260906054327 | 18 | 294 | 0.0 | 0.0 | 0.00 | 0.03 | 0.03 | 61 | 1022.9 |
| 20260906053824 | 18 | 294 | 0.0 | 0.0 | 0.00 | 0.03 | 0.03 | 59 | 1023.0 |
| 20260906053319 | 19 | 294 | 0.0 | 0.0 | 0.00 | 0.03 | 0.03 | 59 | 1023.0 |
| 20260906052814 | 18 | 294 | 1.6 | 1.6 | 0.00 | 0.03 | 0.03 | 58 | 1023.0 |
| 20260906052310 | 19 | 294 | 0.0 | 0.0 | 0.00 | 0.03 | 0.03 | 57 | 1023.1 |
| 20260906051807 | 19 | 294 | 0.0 | 0.0 | 0.00 | 0.03 | 0.03 | 56 | 1023.0 |
| 20260906051307 | 19 | 294 | 0.0 | 0.0 | 0.00 | 0.03 | 0.03 | 56 | 1022.9 |
| 20260906050802 | 20 | 294 | 0.0 | 0.0 | 0.00 | 0.03 | 0.03 | 55 | 1023.0 |
| 20260906050257 | 20 | 292 | 1.6 | 1.6 | 0.00 | 0.03 | 0.03 | 54 | 1023.1 |
| 20260906045756 | 20 | 299 | 0.0 | 1.6 | 0.00 | 0.03 | 0.03 | 53 | 1023.0 |
| 20260906045250 | 20 | 299 | 0.0 | 0.0 | 0.00 | 0.03 | 0.03 | 54 | 1023.1 |
| 20260906044747 | 20 | 299 | 3.2 | 3.2 | 0.00 | 0.03 | 0.03 | 52 | 1022.9 |
| 20260906044241 | 20 | 300 | 1.6 | 1.6 | 0.00 | 0.03 | 0.03 | 51 | 1023.1 |
| 20260906043737 | 21 | 298 | 1.6 | 3.2 | 0.00 | 0.03 | 0.03 | 50 | 1023.2 |
| 20260906043233 | 21 | 298 | 0.0 | 1.6 | 0.00 | 0.03 | 0.03 | 49 | 1023.1 |
| 20260906042733 | 21 | 300 | 1.6 | 1.6 | 0.00 | 0.03 | 0.03 | 50 | 1023.1 |
| 20260906042232 | 21 | 300 | 1.6 | 3.2 | 0.00 | 0.03 | 0.03 | 50 | 1023.4 |
| 20260906041727 | 21 | 301 | 1.6 | 1.6 | 0.00 | 0.03 | 0.03 | 50 | 1023.5 |
| 20260906041223 | 21 | 303 | 1.6 | 1.6 | 0.00 | 0.03 | 0.03 | 49 | 1023.2 |
| 20260906040718 | 21 | 304 | 0.0 | 0.0 | 0.00 | 0.03 | 0.03 | 47 | 1023.2 |
| 20260906040214 | 21 | 303 | 0.0 | 1.6 | 0.00 | 0.03 | 0.03 | 46 | 1023.1 |
| 20260906035709 | 22 | 303 | 0.0 | 1.6 | 0.00 | 0.03 | 0.03 | 46 | 1023.1 |
| 20260906035205 | 22 | 293 | 3.2 | 3.2 | 0.00 | 0.03 | 0.03 | 45 | 1023.4 |
| 20260906034704 | 22 | 290 | 1.6 | 1.6 | 0.00 | 0.03 | 0.03 | 44 | 1023.2 |
| 20260906034159 | 22 | 293 | 0.0 | 0.0 | 0.00 | 0.03 | 0.03 | 45 | 1023.4 |
| 20260906033655 | 22 | 294 | 4.8 | 4.8 | 0.00 | 0.03 | 0.03 | 44 | 1023.4 |
| 20260906033156 | 22 | 293 | 0.0 | 0.0 | 0.00 | 0.03 | 0.03 | 45 | 1023.2 |
| 20260906032652 | 22 | 293 | 1.6 | 1.6 | 0.00 | 0.03 | 0.03 | 45 | 1023.2 |
| 20260906032152 | 22 | 293 | 1.6 | 3.2 | 0.00 | 0.03 | 0.03 | 46 | 1023.2 |
| 20260906031647 | 22 | 293 | 0.0 | 1.6 | 0.00 | 0.03 | 0.03 | 46 | 1023.1 |
| 20260906031143 | 21 | 282 | 6.4 | 9.7 | 0.00 | 0.03 | 0.03 | 46 | 1023.0 |
| 20260906030642 | 22 | 294 | 0.0 | 1.6 | 0.00 | 0.03 | 0.03 | 46 | 1023.1 |
| 20260906030137 | 22 | 294 | 1.6 | 1.6 | 0.00 | 0.03 | 0.03 | 45 | 1023.0 |
| 20260906025637 | 22 | 295 | 1.6 | 1.6 | 0.00 | 0.03 | 0.03 | 45 | 1022.8 |
| 20260906025136 | 22 | 296 | 0.0 | 1.6 | 0.00 | 0.03 | 0.03 | 45 | 1022.6 |
| 20260906024630 | 22 | 296 | 0.0 | 1.6 | 0.00 | 0.03 | 0.03 | 44 | 1022.5 |
| 20260906024125 | 22 | 295 | 3.2 | 3.2 | 0.00 | 0.03 | 0.03 | 43 | 1022.5 |
| 20260906023621 | 22 | 333 | 0.0 | 1.6 | 0.00 | 0.03 | 0.03 | 44 | 1022.3 |
| 20260906023120 | 23 | 333 | 0.0 | 0.0 | 0.00 | 0.03 | 0.03 | 43 | 1022.4 |
| 20260906022616 | 22 | 321 | 0.0 | 0.0 | 0.00 | 0.03 | 0.03 | 41 | 1022.2 |
| 20260906022111 | 23 | 312 | 1.6 | 1.6 | 0.00 | 0.03 | 0.03 | 41 | 1022.2 |
| 20260906021607 | 23 | 307 | 1.6 | 1.6 | 0.00 | 0.03 | 0.03 | 37 | 1021.9 |
| 20260906021106 | 23 | 273 | 4.8 | 6.4 | 0.00 | 0.03 | 0.03 | 36 | 1021.6 |
| 20260906020605 | 24 | 279 | 1.6 | 1.6 | 0.00 | 0.03 | 0.03 | 37 | 1021.6 |
| 20260906020100 | 24 | 284 | 6.4 | 9.7 | 0.00 | 0.03 | 0.03 | 37 | 1021.4 |
| 20260906015600 | 24 | 285 | 4.8 | 4.8 | 0.00 | 0.03 | 0.03 | 37 | 1021.6 |
| 20260906015059 | 25 | 281 | 6.4 | 6.4 | 0.00 | 0.03 | 0.03 | 37 | 1021.4 |
| 20260906014554 | 25 | 284 | 3.2 | 4.8 | 0.00 | 0.03 | 0.03 | 36 | 1021.3 |
| 20260906014050 | 25 | 306 | 4.8 | 6.4 | 0.00 | 0.03 | 0.03 | 36 | 1021.2 |
| 20260906013545 | 25 | 287 | 8.0 | 9.7 | 0.00 | 0.03 | 0.03 | 36 | 1021.3 |
| 20260906013040 | 25 | 299 | 3.2 | 3.2 | 0.00 | 0.03 | 0.03 | 36 | 1021.1 |
| 20260906012535 | 25 | 293 | 3.2 | 4.8 | 0.00 | 0.03 | 0.03 | 36 | 1021.3 |
| 20260906012035 | 25 | 286 | 6.4 | 11.3 | 0.00 | 0.03 | 0.03 | 36 | 1021.3 |
| 20260906011531 | 25 | 276 | 4.8 | 4.8 | 0.00 | 0.03 | 0.03 | 36 | 1021.3 |
| 20260906011031 | 25 | 283 | 4.8 | 4.8 | 0.00 | 0.03 | 0.03 | 36 | 1021.3 |
| 20260906010526 | 26 | 305 | 1.6 | 3.2 | 0.00 | 0.03 | 0.03 | 36 | 1021.4 |
| 20260906010022 | 25 | 286 | 3.2 | 4.8 | 0.00 | 0.03 | 0.03 | 37 | 1021.3 |
| 20260906005521 | 25 | 303 | 3.2 | 3.2 | 0.00 | 0.03 | 0.03 | 39 | 1021.6 |
| 20260906005021 | 25 | 299 | 3.2 | 3.2 | 0.00 | 0.03 | 0.03 | 40 | 1021.6 |
| 20260906004515 | 26 | 311 | 1.6 | 1.6 | 0.00 | 0.03 | 0.03 | 43 | 1021.6 |
| 20260906004010 | 26 | 311 | 0.0 | 0.0 | 0.00 | 0.03 | 0.03 | 40 | 1021.3 |
| 20260906003505 | 27 | 311 | 0.0 | 1.6 | 0.00 | 0.03 | 0.03 | 36 | 1021.3 |
| 20260906003001 | 27 | 311 | 0.0 | 0.0 | 0.00 | 0.03 | 0.03 | 31 | 1021.4 |
| 20260906002501 | 28 | 311 | 0.0 | 0.0 | 0.00 | 0.03 | 0.03 | 29 | 1021.3 |
| 20260906001955 | 28 | 311 | 0.0 | 0.0 | 0.00 | 0.03 | 0.03 | 30 | 1021.4 |
| 20260906001452 | 28 | 311 | 0.0 | 0.0 | 0.00 | 0.03 | 0.03 | 30 | 1021.6 |
| 20260906000946 | 29 | 311 | 0.0 | 0.0 | 0.00 | 0.03 | 0.03 | 29 | 1021.6 |
| 20260906000442 | 29 | 311 | 0.0 | 0.0 | 0.00 | 0.03 | 0.03 | 29 | 1021.2 |
| 20260905235936 | 29 | 311 | 0.0 | 0.0 | 0.00 | 0.03 | 0.03 | 27 | 1021.3 |
| 20260905235436 | 29 | 311 | 1.6 | 1.6 | 0.00 | 0.03 | 0.03 | 26 | 1021.3 |
| 20260905234931 | 29 | 312 | 0.0 | 0.0 | 0.00 | 0.03 | 0.03 | 29 | 1021.4 |
| 20260905234427 | 29 | 312 | 0.0 | 0.0 | 0.00 | 0.03 | 0.03 | 28 | 1021.4 |
| 20260905233926 | 30 | 312 | 0.0 | 1.6 | 0.00 | 0.03 | 0.03 | 28 | 1021.3 |
| 20260905233422 | 30 | 311 | 0.0 | 0.0 | 0.00 | 0.03 | 0.03 | 27 | 1021.2 |
| 20260905232921 | 31 | 294 | 3.2 | 3.2 | 0.00 | 0.03 | 0.03 | 24 | 1021.2 |
| 20260905232417 | 31 | 297 | 1.6 | 3.2 | 0.00 | 0.03 | 0.03 | 24 | 1021.3 |
| 20260905231912 | 31 | 300 | 1.6 | 3.2 | 0.00 | 0.03 | 0.03 | 24 | 1021.4 |
| 20260905231408 | 30 | 316 | 0.0 | 0.0 | 0.00 | 0.03 | 0.03 | 26 | 1021.3 |
| 20260905230905 | 30 | 304 | 3.2 | 4.8 | 0.00 | 0.03 | 0.03 | 25 | 1021.4 |
| 20260905230403 | 30 | 292 | 1.6 | 3.2 | 0.00 | 0.03 | 0.03 | 27 | 1021.4 |
| 20260905225901 | 29 | 315 | 0.0 | 1.6 | 0.00 | 0.03 | 0.03 | 29 | 1021.6 |
| 20260905225356 | 29 | 322 | 3.2 | 3.2 | 0.00 | 0.03 | 0.03 | 26 | 1021.6 |
| 20260905224851 | 29 | 319 | 0.0 | 1.6 | 0.00 | 0.03 | 0.03 | 28 | 1021.7 |
| 20260905224347 | 29 | 337 | 3.2 | 3.2 | 0.00 | 0.03 | 0.03 | 28 | 1021.4 |
| 20260905223841 | 29 | 319 | 3.2 | 3.2 | 0.00 | 0.03 | 0.03 | 27 | 1021.4 |
| 20260905223340 | 29 | 279 | 4.8 | 6.4 | 0.00 | 0.03 | 0.03 | 26 | 1021.6 |
| 20260905222840 | 30 | 328 | 8.0 | 11.3 | 0.00 | 0.03 | 0.03 | 26 | 1021.7 |
| 20260905222338 | 30 | 315 | 1.6 | 1.6 | 0.00 | 0.03 | 0.03 | 27 | 1021.3 |
| 20260905221835 | 30 | 331 | 1.6 | 1.6 | 0.00 | 0.03 | 0.03 | 25 | 1021.7 |
| 20260905221331 | 30 | 312 | 1.6 | 1.6 | 0.00 | 0.03 | 0.03 | 30 | 1021.7 |
| 20260905220827 | 30 | 302 | 3.2 | 4.8 | 0.00 | 0.03 | 0.03 | 27 | 1021.7 |
| 20260905220323 | 28 | 315 | 0.0 | 0.0 | 0.00 | 0.03 | 0.03 | 33 | 1021.7 |
| 20260905215822 | 28 | 303 | 3.2 | 4.8 | 0.00 | 0.03 | 0.03 | 31 | 1021.6 |
| 20260905215318 | 28 | 295 | 4.8 | 4.8 | 0.00 | 0.03 | 0.03 | 31 | 1021.7 |